Regional Weather Roundup
Issued by NWS Bismarck, ND

Home | Current Version | Previous Version | Text Only | Print | Product List | Glossary On
Versions: 1 2 3 4 5 6 7 8 9 10 11 12 13 14 15 16 17 18 19 20 21 22 23 24 25 26 27 28 29 30 31 32 33 34 35 36 37 38 39 40 41 42 43 44 45 46 47 48 49 50
000
ASUS43 KBIS 180920
RWRBIS

NWR BROADCAST TEXT
NATIONAL WEATHER SERVICE BISMARCK ND
300 AM CST THU DEC 18 2014

NOTE: "FAIR" INDICATES FEW OR NO CLOUDS BELOW 12,000 FEET WITH NO
SIGNIFICANT WEATHER AND/OR OBSTRUCTIONS TO VISIBILITY.


CITY           SKY/WX    TMP DP  RH WIND       PRES   REMARKS
WILLISTON      CLOUDY    20  16  84 SE7       30.03S WCI  11
MINOT          CLOUDY    12   8  84 SE7       30.10F WCI   1
MINOT AFB      MOCLDY    11  10  98 SE5       30.11S WCI   2
BISMARCK       CLOUDY    17  13  84 SE9       30.15S WCI   6
DICKINSON      CLOUDY    20  16  84 S9        29.98F WCI   9
GARRISON         N/A     18  15  88 S8        30.09F WCI   8
HETTINGER ARPT CLOUDY    19  16  88 SE10      30.02S FOG     WCI   7
JAMESTOWN      CLOUDY    10   7  87 SE5       30.20F WCI   2
BEACH          CLOUDY    23  23 100 S7        29.97S WCI  15
CARRINGTON     FAIR      10  10 100 MISG      30.18F
CROSBY         CLOUDY    18  18 100 S7        30.04F WCI   8
HARVEY         FAIR       9   7  92 CALM      30.16S
HAZEN          CLOUDY    18  14  86 S9        30.10F WCI   6
LINTON         CLOUDY    16  14  93 SE10      30.14S WCI   3
OAKES            N/A      9   9 100 SE6       30.23F WCI  -1
RUGBY          FAIR       7   5  92 SE8       30.16F WCI  -6
STANLEY        CLOUDY    18  18 100 S13       30.03F WCI   4
TIOGA          CLOUDY    18  18 100 S12       30.06S WCI   5
WATFORD CITY   FLURRIES  19  18  93 SE8       30.01S WCI   9
$$

CITY           SKY/WX    TMP DP  RH WIND       PRES   REMARKS
GRAND FORKS    PTCLDY     2  -1  88 SW5       30.30R WCI  -8
GRAND FORKS AF PTCLDY     2   1  93 SW2       30.29R
DEVILS LAKE    PTCLDY     9   0  66 S7        30.19S WCI  -3
FARGO          PTCLDY    10   6  84 S5        30.29S WCI   2
CANDO          FAIR       0  -2  92 SE9       30.20S WCI -16
CAVALIER       FAIR       5   3  92 S3        30.28S
GWINNER        SUNNY     12  12 100 MISG      30.25F
LANGDON        FAIR       3   0  85 S8        30.20S WCI -10
ROLLA          FAIR       5   3  92 S10       30.15S WCI -10
WALHALLA         N/A      0  -2  92 SE5       30.27F WCI -10
$$

CITY           SKY/WX    TMP DP  RH WIND       PRES   REMARKS
ABERDEEN       CLOUDY    17  13  84 SE7       30.23F WCI   8
MOBRIDGE       CLOUDY    18  15  88 SE8       30.11S WCI   8
BUFFALO          N/A     24  20  84 S10       29.90S WCI  14
RAPID CITY     CLOUDY    23  21  92 S9        29.99S WCI  13
GLASGOW        CLOUDY    23  20  88 E12       29.95S FOG     WCI  12
SIDNEY         CLOUDY    23  19  86 SE5       30.02F WCI  17
WOLF POINT     CLOUDY    23  19  85 E5        29.99F WCI  17
GLENDIVE       CLOUDY    23  19  86 E5        29.98S WCI  17
MILES CITY     CLOUDY    25  22  88 NE3       29.95S
BAKER          CLOUDY    24  23  96 E5        29.95S WCI  18
$$

CITY           SKY/WX    TMP DP  RH WIND       PRES   REMARKS
BILLINGS       CLEAR     24  18  77 SW16      29.94S WCI  11
GREAT FALLS    PTCLDY    30  24  78 S12       29.88S
REGINA         CLOUDY    18  16  93 S14       30.00F WCI   4
ESTEVAN        FLURRIES  18  14  86 S8        30.05S WCI   7
$$



USA.gov is the U.S. government's official web portal to all federal, state and local government web resources and services.